[[{"header":{"parameterUnit":"m.s-1","parameterCategory":1,"la1":30.2991,"la2":30.254,"lo1":-89.0895,"lo2":-89.0444,"dy":0.0017,"dx":0.0017,"nx":28,"ny":28,"refTime":"2025-04-18T09:00:00:Z","depth":0,"parameterNumber":2,"parameterNumberName":"U-component_of_WINDS"},"data":[0,0,0,0,0,0,0,0,0,0,0,0,0,0,0,0,0,0,0,0,0,0,0,0,0,0,0,0,0,0,0,0,0,0,0,0,0,0,0,0,0,0,0,0,0,0,0,0,0,0,0,0,0,0,0,0,0,0,-4.7919,-4.792,0,-4.7994,-4.7995,-4.7996,-4.795,-4.7948,-4.7946,-4.7944,-4.8018,-4.8022,-4.8025,0,0,0,0,0,0,0,0,0,0,0,0,0,-4.7736,-4.774,-4.7919,-4.792,-4.7921,-4.7994,-4.7995,-4.7996,-4.7951,-4.7948,-4.7945,-4.7943,-4.8016,-4.8021,-4.8026,0,0,0,0,0,0,0,0,0,0,0,0,0,-4.7814,-4.7741,-4.7919,-4.7908,-4.7907,-4.7994,-4.7995,-4.7996,-4.7951,-4.7948,-4.7945,-4.7942,-4.8015,-4.8021,-4.8026,-4.8128,0,0,-4.8045,-4.8047,0,0,0,0,0,0,0,0,-4.7809,-4.7821,-4.7908,-4.7908,-4.7908,-4.796,-4.7957,-4.804,-4.7952,-4.7934,-4.7944,-4.794,-4.8001,-4.8008,-4.8029,-4.8131,-4.8134,-4.8045,-4.8049,-4.8051,-4.8053,0,0,0,0,0,0,0,-4.7804,-4.7817,-4.7949,-4.791,-4.791,-4.7898,-4.7905,-4.7973,-4.7985,-4.7936,-4.7933,-4.7942,-4.8,-4.8023,-4.803,-4.8135,-4.8045,-4.805,-4.8054,-4.8056,-4.8325,-4.8328,0,0,0,0,0,0,-4.78,-4.7813,-4.7946,-4.7951,-4.785,-4.7904,-4.7912,-4.7946,-4.7984,-4.7987,-4.7945,-4.794,-4.8014,-4.8023,-4.8032,-4.8153,-4.8051,-4.8057,-4.806,-4.8321,-4.8326,-4.833,0,0,0,0,0,0,-4.7796,-4.7812,-4.7943,-4.7881,-4.7897,-4.7911,-4.7949,-4.7949,-4.7972,-4.7991,-4.7992,-4.7966,-4.8012,-4.8024,-4.8105,-4.8155,-4.806,-4.8065,-4.8317,-4.8323,-4.8328,-4.8395,0,0,0,0,0,0,-4.7791,-4.7811,-4.785,-4.7882,-4.7901,-4.8015,-4.7952,-4.7953,-4.7983,-4.7977,-4.8011,-4.8014,-4.8011,-4.8096,-4.8111,-4.8161,-4.807,-4.8313,-4.832,-4.8326,-4.8388,-4.8402,-4.8413,0,0,0,0,0,-4.7785,-4.7865,-4.7852,-4.7869,-4.7949,-4.8018,-4.8028,-4.8023,-4.7987,-4.8026,-4.8038,-4.8013,-4.8148,-4.8105,-4.8121,-4.8174,-4.8309,-4.8318,-4.8325,-4.8382,-4.8399,-4.8413,0,0,0,0,0,0,-4.7837,-4.7869,-4.7855,-4.7949,-4.7981,-4.801,-4.8059,-4.8041,-4.8084,-4.8076,-4.8068,-4.8077,-4.816,-4.8176,-4.8127,-4.8274,-4.8223,-4.8234,-4.826,-4.8276,-4.8289,-4.8282,-4.8075,0,0,0,0,0,-4.786,-4.7913,-4.7938,-4.8019,-4.8036,-4.8045,-4.8074,-4.8069,-4.8101,-4.8114,-4.8132,-4.8164,-4.8214,-4.8246,-4.8293,-4.8391,-4.8397,-4.8436,-4.8448,-4.8459,-4.8468,-4.852,-4.8537,-4.8356,-4.8356,-4.8356,0,0,-4.7907,-4.7931,-4.7965,-4.803,-4.8054,-4.8109,-4.8056,-4.8117,-4.8157,-4.8123,-4.82,-4.8215,-4.825,-4.834,-4.838,-4.8355,-4.852,-4.8469,-4.8477,-4.8481,-4.853,-4.8547,-4.8563,-4.8361,-4.836,-4.8359,0,0,-4.8019,-4.8044,-4.8113,-4.8139,-4.8177,-4.8183,-4.82,-4.8232,-4.8241,-4.8319,-4.8294,-4.8342,-4.8428,-4.8454,-4.8479,-4.8604,-4.8582,-4.862,-4.8685,-4.8736,-4.875,-4.8763,-4.8806,-4.8822,-4.8629,-4.863,-4.863,0,-4.8072,-4.8155,-4.8151,-4.8213,-4.8242,-4.8216,-4.8286,-4.8311,-4.8362,-4.8382,-4.8354,-4.8461,-4.8484,-4.8578,-4.8609,-4.8631,-4.8649,-4.8614,-4.8749,-4.8761,-4.8773,-4.8814,-4.883,-4.8634,-4.8633,-4.8633,-4.8632,0,-4.8217,-4.8275,-4.8326,-4.8377,-4.8412,-4.8478,-4.8484,-4.852,-4.8512,-4.8521,-4.86,-4.8626,-4.8677,-4.87,-4.8692,-4.8794,-4.8777,-4.875,-4.8697,-4.8794,-4.8833,-4.8849,-4.864,-4.8638,-4.8637,-4.8636,0,0,-4.8362,-4.8412,-4.8431,-4.8453,-4.8495,-4.8539,-4.8604,-4.8655,-4.8685,-4.8723,-4.8776,-4.885,-4.8825,-4.8853,-4.8848,-4.8893,-4.8989,-4.8859,-4.886,-4.8881,-4.9102,-4.9121,-4.914,-4.8976,-4.8979,-4.8982,-4.9099,0,-4.8476,-4.859,-4.8589,-4.8694,-4.8746,-4.8724,-4.878,-4.8811,-4.8822,-4.8868,-4.8879,-4.8931,-4.8895,-4.8911,-4.8955,-4.8968,-4.9033,-4.896,-4.9024,-4.9027,-4.9013,-4.916,-4.9181,-4.9289,-4.9114,-4.9116,-4.9118,0,-4.8624,-4.8666,-4.8776,-4.881,-4.8832,-4.8883,-4.893,-4.8975,-4.901,-4.9015,-4.9047,-4.9036,-4.9101,-4.905,-4.914,-4.909,-4.9117,-4.9127,-4.9131,-4.9135,-4.9076,-4.9166,-4.9324,-4.934,-4.9142,-4.914,-4.9139,0,-4.8716,-4.8802,-4.8878,-4.8899,-4.8941,-4.8977,-4.8996,-4.9028,-4.9059,-4.9101,-4.9121,-4.9169,-4.9195,-4.9233,-4.9235,-4.9198,-4.9325,-4.9274,-4.9329,-4.9329,-4.9355,-4.9353,-4.9518,-4.9376,-4.9376,-4.9376,-4.9376,0,-4.8842,-4.891,-4.8921,-4.8967,-4.9043,-4.9042,-4.9117,-4.9132,-4.9161,-4.9211,-4.9195,-4.9241,-4.9242,-4.929,-4.9292,-4.9365,-4.9377,-4.9382,-4.9381,-4.9382,-4.9381,-4.9397,-4.9389,-4.938,-4.9379,-4.9378,-4.9378,0,-4.8957,-4.8967,-4.9049,-4.9083,-4.9093,-4.9147,-4.9175,-4.922,-4.923,-4.9293,-4.9307,-4.9323,-4.9378,-4.9385,-4.9449,-4.945,-4.9538,-4.9531,-4.9526,-4.9524,-4.9579,-4.9573,-4.9758,-4.9781,-4.9627,-4.9628,-4.963,0,-4.9036,-4.9087,-4.9127,-4.9159,-4.9181,-4.9233,-4.9265,-4.9267,-4.9301,-4.9345,-4.9384,-4.9438,-4.9481,-4.9571,-4.9587,-4.9636,-4.9628,-4.969,-4.9635,-4.9635,-4.9627,-4.9623,-4.9628,-4.9699,-4.9701,-4.9702,-4.9704,0,-4.9173,-4.9176,-4.9223,-4.9273,-4.9312,-4.9351,-4.9387,-4.9414,-4.9421,-4.946,-4.9517,-4.955,-4.9616,-4.967,-4.9719,-4.9737,-4.9721,-4.9721,-4.9736,-4.9736,-4.9731,-4.9733,-4.9553,-4.9716,-4.9715,-4.9714,-4.9713,-4.9713,-4.9271,-4.9316,-4.9351,-4.9404,-4.9433,-4.9467,-4.9511,-4.9527,-4.9575,-4.9629,-4.9628,-4.969,-4.9724,-4.9788,-4.9811,-4.9859,-4.9839,-4.9861,-4.9866,-4.9871,-4.9876,-4.9726,-4.9868,-4.9868,-4.9868,-4.9867,-4.9867,0,-4.9407,-4.9429,-4.9478,-4.953,-4.9572,-4.9555,-4.9595,-4.9631,-4.9686,-4.972,-4.9763,-4.9828,-4.988,-4.9902,-4.9953,-4.9987,-4.9981,-5.0001,-4.9997,-5.0001,-4.9892,-4.9873,-5.0005,-5.0005,-5.0005,-5.0004,-5.0004,-5.0004,-4.9482,-4.9557,-4.9564,-4.9653,-4.9674,-4.9735,-4.9759,-4.9791,-4.9818,-4.9892,-4.9935,-4.995,-4.9979,-5.0032,-5.0079,-5.0084,-5.0102,-5.0124,-5.0126,-5.0023,-5.0009,-4.9996,-4.9977,-5.0129,-5.0129,-5.0231,-5.0232,-5.0233]},{"header":{"parameterUnit":"m.s-1","parameterCategory":1,"la1":30.2991,"la2":30.254,"lo1":-89.0895,"lo2":-89.0444,"dy":0.0017,"dx":0.0017,"nx":28,"ny":28,"refTime":"2025-04-18T09:00:00:Z","depth":0,"parameterNumber":3,"parameterNumberName":"V-component_of_WINDS"},"data":[0,0,0,0,0,0,0,0,0,0,0,0,0,0,0,0,0,0,0,0,0,0,0,0,0,0,0,0,0,0,0,0,0,0,0,0,0,0,0,0,0,0,0,0,0,0,0,0,0,0,0,0,0,0,0,0,0,0,3.381,3.3811,0,3.392,3.3922,3.3923,3.4,3.4,3.4001,3.4002,3.4107,3.4109,3.4111,0,0,0,0,0,0,0,0,0,0,0,0,0,3.3658,3.366,3.381,3.3811,3.3813,3.392,3.3922,3.3923,3.4,3.4,3.4001,3.4002,3.4106,3.4109,3.4111,0,0,0,0,0,0,0,0,0,0,0,0,0,3.3741,3.3661,3.3809,3.3864,3.387,3.392,3.3922,3.3924,3.4,3.4,3.4001,3.4002,3.4105,3.4108,3.4112,3.4114,0,0,3.4122,3.4123,0,0,0,0,0,0,0,0,3.3737,3.3747,3.3855,3.386,3.3867,3.3948,3.3907,3.3987,3.3999,3.395,3.4002,3.4003,3.4052,3.406,3.4079,3.4119,3.4123,3.4122,3.4124,3.4126,3.4126,0,0,0,0,0,0,0,3.3731,3.3743,3.3853,3.3856,3.3864,3.3881,3.3893,3.3922,3.3994,3.3954,3.396,3.3973,3.4056,3.4075,3.4082,3.4125,3.4122,3.4125,3.4127,3.4128,3.4174,3.4173,0,0,0,0,0,0,3.3718,3.3737,3.385,3.3857,3.3803,3.3883,3.3897,3.3921,3.3994,3.4007,3.3972,3.3976,3.4069,3.4078,3.4086,3.4095,3.4126,3.4129,3.4131,3.4175,3.4174,3.4173,0,0,0,0,0,0,3.3714,3.3727,3.3845,3.3799,3.3815,3.3884,3.391,3.3922,3.3942,3.4008,3.402,3.3979,3.407,3.4081,3.4107,3.4099,3.413,3.4133,3.4176,3.4174,3.4173,3.4112,0,0,0,0,0,0,3.3709,3.3725,3.3728,3.3798,3.3817,3.3867,3.391,3.3924,3.3948,3.3955,3.4018,3.4029,3.4072,3.4102,3.4111,3.4105,3.4136,3.4177,3.4175,3.4174,3.4115,3.4109,3.4103,0,0,0,0,0,3.3704,3.3704,3.3728,3.3741,3.3823,3.3866,3.3877,3.3929,3.3947,3.395,3.3993,3.4027,3.4099,3.4104,3.4114,3.4109,3.4177,3.4175,3.4174,3.4117,3.411,3.4104,0,0,0,0,0,0,3.3628,3.3714,3.3742,3.3766,3.3809,3.3879,3.3885,3.3919,3.3955,3.3959,3.4019,3.4033,3.4053,3.4083,3.4088,3.4116,3.4142,3.4142,3.4096,3.4089,3.4083,3.4076,3.4139,0,0,0,0,0,3.3615,3.3645,3.3718,3.3732,3.3752,3.3814,3.3835,3.3872,3.3917,3.3935,3.398,3.402,3.4053,3.4072,3.4105,3.4119,3.4134,3.4121,3.4115,3.411,3.411,3.4121,3.4116,3.4167,3.4167,3.4167,0,0,3.3586,3.3637,3.3652,3.3718,3.3756,3.3784,3.3829,3.3857,3.3878,3.3938,3.3968,3.4001,3.4051,3.4072,3.4083,3.4098,3.4099,3.4108,3.4103,3.4106,3.4118,3.4114,3.4109,3.4166,3.4166,3.4166,0,0,3.355,3.3592,3.3609,3.3647,3.3704,3.3746,3.375,3.3816,3.3842,3.3873,3.3919,3.3944,3.3997,3.4032,3.4056,3.4034,3.4067,3.4042,3.4013,3.4023,3.4019,3.4016,3.4009,3.4006,3.4042,3.4042,3.4041,0,3.3507,3.3555,3.3613,3.3639,3.3667,3.3725,3.3743,3.3775,3.3839,3.3856,3.3872,3.3942,3.3979,3.401,3.4005,3.4022,3.4028,3.4036,3.4015,3.4012,3.401,3.4004,3.4002,3.4038,3.4039,3.4039,3.4039,0,3.35,3.3532,3.3538,3.3603,3.3631,3.3651,3.3711,3.3732,3.3766,3.3805,3.3835,3.3883,3.3927,3.3937,3.3968,3.3972,3.3979,3.4004,3.4032,3.4001,3.3997,3.3995,3.4034,3.4035,3.4036,3.4037,0,0,3.3419,3.3517,3.3518,3.3549,3.3617,3.3642,3.3665,3.3712,3.3729,3.3771,3.3792,3.3837,3.3861,3.3889,3.3925,3.3933,3.3915,3.3958,3.396,3.3949,3.3922,3.3904,3.3901,3.3937,3.3936,3.3936,3.3919,0,3.3394,3.3443,3.3497,3.3526,3.3557,3.3613,3.3634,3.3677,3.3714,3.3743,3.3783,3.3815,3.3844,3.3862,3.3873,3.3915,3.391,3.3916,3.3956,3.3956,3.3943,3.3898,3.3879,3.386,3.3917,3.3917,3.3917,0,3.3372,3.3415,3.3449,3.3516,3.3531,3.3549,3.3597,3.3624,3.3674,3.37,3.3732,3.3771,3.3798,3.3821,3.3858,3.3861,3.388,3.3903,3.3903,3.391,3.3935,3.3904,3.3855,3.3852,3.3914,3.3914,3.3915,0,3.3312,3.3378,3.3407,3.3431,3.351,3.3522,3.3554,3.3605,3.363,3.367,3.3687,3.3729,3.3752,3.3782,3.3831,3.3844,3.3863,3.389,3.3885,3.3884,3.3887,3.3886,3.3841,3.3897,3.3897,3.3897,3.3897,0,3.328,3.3298,3.3382,3.34,3.3422,3.3482,3.3501,3.3539,3.3584,3.3609,3.3658,3.368,3.3743,3.3772,3.381,3.3835,3.3844,3.3866,3.3876,3.3862,3.3859,3.3876,3.3879,3.3896,3.3896,3.3896,3.3897,0,3.3217,3.3273,3.331,3.3382,3.3401,3.3414,3.3475,3.3494,3.3534,3.3565,3.3576,3.3639,3.3675,3.3727,3.3778,3.3804,3.3824,3.3839,3.3808,3.3814,3.3807,3.3807,3.3771,3.377,3.3825,3.3824,3.3824,0,3.3193,3.321,3.3285,3.3307,3.334,3.3373,3.34,3.3459,3.3485,3.3543,3.3554,3.3596,3.3632,3.3687,3.3736,3.3775,3.3793,3.3778,3.3799,3.3785,3.3794,3.3793,3.3796,3.3773,3.3772,3.3771,3.377,0,3.3146,3.3174,3.3213,3.3261,3.3292,3.3332,3.3374,3.3389,3.3456,3.3482,3.3522,3.355,3.3604,3.3644,3.3691,3.3722,3.3757,3.3763,3.3765,3.3751,3.3734,3.3745,3.3796,3.3764,3.3765,3.3765,3.3766,3.3766,3.3104,3.3122,3.3178,3.3219,3.3258,3.3297,3.3319,3.3363,3.3398,3.345,3.3481,3.3519,3.3568,3.3635,3.3665,3.3695,3.3709,3.371,3.3711,3.371,3.3706,3.3728,3.3703,3.3703,3.3703,3.3703,3.3704,0,3.3061,3.3101,3.3138,3.3197,3.3229,3.3262,3.3311,3.3335,3.3369,3.3413,3.3449,3.3495,3.3534,3.3586,3.3629,3.3642,3.366,3.3652,3.3652,3.3659,3.369,3.3686,3.3637,3.3637,3.3637,3.3637,3.3637,3.3637,3.3042,3.3075,3.3109,3.3161,3.32,3.3241,3.3266,3.3301,3.3337,3.3387,3.3421,3.3456,3.3503,3.355,3.3587,3.3601,3.3615,3.3602,3.3621,3.365,3.3656,3.3662,3.3658,3.3605,3.3605,3.3588,3.3588,3.3588]}]]